Location: Climax
(33.2048°N, 96.4497°W)
Time: 19:07:39
(UTC+00:00)

SL-4 R/B - Pass Details

Date: 11 July 2022
Orbit: 425 x 653 km, 51.6° (Epoch: 16 August)

Event Time Altitude Azimuth Distance (km) Brightness Sun altitude
Rises 08:52:17 0° 330° (NNW) 2,527 5.7 -25.3°
Reaches altitude 10° 08:55:22 10° 358° (N) 1,697 5.2 -24.9°
Maximum altitude 08:57:18 13° 29° (NNE) 1,526 5.2 -24.7°
Drops below altitude 10° 08:59:19 10° 59° (ENE) 1,765 5.5 -24.4°
Sets 09:02:39 0° 87° (E) 2,716 6.2 -24.0°
